Content
SEND FEEDBACK

Daily
Averages
Monthly
Summary
Sweden

GENEVAD, SWEDEN


Home > Europe > Sweden
Elevation: 83 feet     Latitude: 56 41N     Longitude: 012 49E

WEATHER
 
SELECT A DAY
Number of Records: 66,661;   Date Range: 1/10/97 - 9/21/14
 
SHARE

PRINT THIS DATA

[ ← Previous Day ]
WEATHER ALMANAC - JANUARY 31, 2013
[ Next Day → ]
[ °C ]   °F
Weather ElementAverageHighLow
Temperature37.4 °F41 °F (11:20 am)33.8 °F (8:20 pm)
Dewpoint34.9 °F37.4 °F (4:50 am)33.8 °F (9:20 am)
Humidity91.2 %100 % (4:50 am)76 % (11:20 am)
Barometer29.19 in29.33 in (9:20 pm)29.00 in (4:20 am)
Wind Speed18.6 mph31.1 mph (9:20 am)
Wind Gust49.5 mph (9:50 am)
Weather ElementAverage
Visibility5.1 mi
Wind DirectionWSW (240 °)

Weather ElementTotal
Precipitation---
Heating Degree Days27.6 (Base 65)
Averaged from 46 records on January 31, 2013
WEATHER CONDITIONS BREAKOUT
WIND DIRECTION BREAKOUT
WEATHER BY HOUR - JANUARY 31, 2013
[ °C ]   °F
Local TimeTemperatureDewpointHumidityBarometerVisibilityWind DirectionWind SpeedGust SpeedPrecipitationEventsConditions
12:50 AM37.4 °F35.6 °F93 %29.12 in5.0 miSSW (210°)24.2 mphRainLight Rain
1:20 AM37.4 °F35.6 °F93 %29.12 in5.6 miSSW (200°)24.2 mphLight Drizzle
1:50 AM37.4 °F35.6 °F93 %29.09 in5.0 miSSW (210°)24.2 mphRainLight Rain
2:20 AM37.4 °F35.6 °F93 %29.09 in5.6 miSSW (210°)26.5 mphLight Drizzle
2:50 AM37.4 °F35.6 °F93 %29.06 in5.6 miSW (220°)27.6 mph39.1 mphLight Drizzle
3:20 AM37.4 °F35.6 °F93 %29.03 in5.0 miSW (220°)27.6 mph41.4 mphMostly Cloudy
3:50 AM37.4 °F35.6 °F93 %29.03 inSW (220°)27.6 mphRainLight Rain
4:20 AM37.4 °F35.6 °F93 %29.00 in3.1 miSW (220°)28.8 mph40.3 mphOvercast
4:50 AM37.4 °F37.4 °F100 %29.00 inSW (220°)26.5 mphRainLight Rain
5:20 AM37.4 °F37.4 °F100 %29.00 in3.1 miSW (230°)27.6 mphOvercast
5:50 AM37.4 °F37.4 °F100 %29.00 inSW (230°)25.3 mphOvercast
6:20 AM39.2 °F37.4 °F93 %29.00 in5.6 miWSW (240°)24.2 mphMostly Cloudy
6:50 AM39.2 °F37.4 °F93 %29.00 in5.6 miWSW (240°)20.7 mphOvercast
7:20 AM39.2 °F35.6 °F87 %29.03 in6.2 miWest (260°)21.9 mphOvercast
7:50 AM39.2 °F35.6 °F87 %29.03 in6.2 miWest (260°)23.0 mphOvercast
8:20 AM39.2 °F35.6 °F87 %29.06 in5.6 miWest (270°)28.8 mph40.3 mphOvercast
8:50 AM39.2 °F35.6 °F87 %29.09 in5.6 miWest (270°)29.9 mph44.9 mphMostly Cloudy
9:20 AM39.2 °F33.8 °F81 %29.09 in5.6 miWest (270°)31.1 mph43.7 mphMostly Cloudy
9:50 AM39.2 °F33.8 °F81 %29.15 in5.0 miWest (270°)31.1 mph49.5 mphMostly Cloudy
10:20 AM39.2 °F33.8 °F81 %29.18 in6.2 miWest (280°)28.8 mph46.0 mphMostly Cloudy
10:50 AM39.2 °F33.8 °F81 %29.21 in5.6 miWest (280°)25.3 mphMostly Cloudy
11:20 AM41.0 °F33.8 °F76 %29.21 in6.2 miWest (280°)26.5 mph40.3 mphScattered Clouds
11:50 AM39.2 °F33.8 °F81 %29.24 in6.2 miWest (280°)25.3 mphMostly Cloudy
12:20 PM39.2 °F33.8 °F81 %29.27 in6.2 miWest (270°)23.0 mphMostly Cloudy
12:50 PM39.2 °F33.8 °F81 %29.30 in6.2 miWest (270°)23.0 mph35.7 mphMostly Cloudy
1:20 PM41.0 °F35.6 °F81 %29.27 in6.2 miWest (270°)24.2 mphMostly Cloudy
1:50 PM39.2 °F33.8 °F81 %29.30 inWest (270°)20.7 mphClear
2:50 PM37.4 °F35.6 °F93 %29.30 in5.0 miWest (260°)13.8 mphMist
3:20 PM37.4 °F35.6 °F93 %29.30 in5.0 miWest (260°)13.8 mphScattered Clouds
3:50 PM39.2 °F35.6 °F87 %29.30 in5.0 miWest (260°)12.7 mphScattered Clouds
4:20 PM39.2 °F35.6 °F87 %29.27 in5.0 miWest (260°)13.8 mphMostly Cloudy
4:50 PM39.2 °F35.6 °F87 %29.27 in5.6 miWest (260°)12.7 mphScattered Clouds
5:20 PM35.6 °F33.8 °F93 %29.27 in5.0 miWSW (240°)9.2 mphPartly Cloudy
5:50 PM35.6 °F33.8 °F93 %29.27 in4.3 miSW (230°)8.1 mphMostly Cloudy
6:20 PM35.6 °F33.8 °F93 %29.30 in5.0 miSW (230°)8.1 mphMostly Cloudy
6:50 PM35.6 °F35.6 °F100 %29.30 in5.0 miWSW (250°)9.2 mphMostly Cloudy
7:20 PM35.6 °F33.8 °F93 %29.30 in5.0 miWSW (250°)9.2 mphMostly Cloudy
7:50 PM35.6 °F33.8 °F93 %29.30 in4.3 miWSW (240°)6.9 mphMostly Cloudy
8:20 PM33.8 °F33.8 °F100 %29.30 in3.7 miWSW (240°)6.9 mphScattered Clouds
8:50 PM33.8 °F33.8 °F100 %29.30 in3.1 miSW (220°)5.8 mphMostly Cloudy
9:20 PM33.8 °F33.8 °F100 %29.33 in3.7 miSSW (200°)4.6 mphOvercast
9:50 PM33.8 °F33.8 °F100 %29.33 in4.3 miSW (220°)5.8 mphOvercast
10:20 PM33.8 °F33.8 °F100 %29.33 in4.3 miVariable2.3 mphOvercast
10:50 PM33.8 °F33.8 °F100 %29.33 in4.3 miWSW (240°)5.8 mphOvercast
11:20 PM33.8 °F33.8 °F100 %29.33 in5.0 miWSW (250°)3.5 mphMostly Cloudy
11:50 PM33.8 °F33.8 °F100 %29.33 in5.6 miWest (260°)3.5 mphMostly Cloudy
Hourly data recorded from ESMT, located miles away from Genevad, Sweden







STORIES FROM OUR PARTNERS